User: anonymous
Location: Young's Pond
(41.2695°N, 72.7766°W)
Time: 03:59:43
(UTC-04:00)
Language:

CZ-4B R/B - Orbit

View from above orbital plane
View from above orbital plane
View from above satellite
View from above satellite

Ground track
Ground track

The orbit data is extracted from the following two-line orbital elements,

1 29093U 06015B   14295.10343008  .00018762  00000-0  65162-3 0  4324
2 29093 097.5139 015.1251 0088101 174.0668 236.7314 15.26097704468920
Epoch (UTC): 22 October 2014 02:28:56
Eccentricity: 0.0088101
inclination: 97.5139°
perigee height: 427 km
apogee height: 548 km
right ascension of ascending node: 15.1251°
argument of perigee: 174.0668°
revolutions per day: 15.26097704
mean anomaly at epoch: 236.7314°
orbit number at epoch: 46892

The dashed part of the orbit path shows where the satellite is in the earth's shadow,  

DLR